Location: Bluff Creek
(32.1546°N, 83.4085°W)
Time: 19:15:49
(UTC+00:00)

Daily predictions for brighter satellites

Satellite Brightness Start Highest point End
(mag) Time Altitude Azimuth Time Altitude Azimuth Time Altitude Azimuth
Cosmos 1125 Rocket 4.4 22:49:40 10° N 22:54:03 27° ENE 22:58:25 10° SE
Cosmos 2184 Rocket 4.1 22:49:13 10° N 22:55:38 89° WSW 23:01:57 10° S
Cosmos 2219 Rocket 4.3 22:52:01 10° WSW 22:56:35 25° WNW 23:01:10 10° N
CZ-4B R/B 3.1 22:53:53 10° SSE 22:59:14 67° ENE 23:04:31 10° N
NOAA 12 4.1 22:54:36 10° SSE 22:59:50 63° ENE 23:05:06 10° N
H-2A R/B 4.5 22:57:00 10° SSW 23:00:30 37° W 23:04:04 10° NNW
AQUARIUS 4.2 22:57:10 10° SSE 23:01:33 58° ENE 23:05:58 10° N
Orbus 7S 4.0 22:59:06 10° WSW 23:01:47 31° S 23:04:09 10° ESE
USA 215 3.9 22:56:49 10° NNE 23:03:10 55° NW 23:09:29 10° WSW
DELTA 2 R/B (1) 3.6 22:58:22 10° WNW 23:03:57 88° NNE 23:09:30 10° ESE
FengYun 1-2 T 4.5 22:58:40 10° SE 23:03:57 46° ENE 23:09:13 10° N
Aureole 2 Rocket 2.9 23:01:33 10° NNW 23:04:17 51° WSW 23:07:09 10° S
H-2A R/B 3.2 23:00:15 10° S 23:04:37 61° W 23:08:53 10° NNW
Cosmos 2237 Rocket 2.5 22:59:03 10° SSW 23:04:38 72° WNW 23:10:16 10° NNE
NOAA 11 4.4 23:01:48 10° SE 23:06:56 46° ENE 23:12:06 10° N
ATLAS 3B CENTAUR R/B 1.6 23:06:15 10° SW 23:07:49 22° SSE 23:09:46 10° ESE
COSMO-SKYMED 1 3.1 23:06:19 10° NNE 23:10:22 38° E 23:14:25 10° SSE
Cosmos 1743 Rocket 3.9 23:06:38 10° N 23:11:06 73° W 23:15:29 10° S
Okean O Rocket 1.5 23:08:15 10° SSE 23:12:34 81° ENE 23:16:56 10° N
YAOGAN 6 3.8 23:09:51 10° S 23:13:23 48° W 23:16:57 10° NNW
Cosmos 1933 4.0 23:09:57 10° SSE 23:13:32 32° E 23:17:09 10° NNE
Envisat 4.2 23:11:10 10° S 23:16:01 47° W 23:20:56 10° NNW
SL-24 R/B 4.4 23:15:15 10° NNE 23:18:52 34° E 23:22:14 10° SSE
Cosmos 405 Rocket 3.2 23:15:17 10° NNW 23:19:10 68° W 23:23:07 10° S
CORIOLIS 4.2 23:15:00 10° SSE 23:20:22 87° ENE 23:25:49 10° NNW
Sich 1 3.2 23:18:04 10° N 23:22:18 47° E 23:26:28 10° SSE
X-37B 2.8 23:20:47 10° SSE 23:22:26 14° SE 23:23:28 12° ESE
H-2A R/B 3.8 23:25:29 13° NE 23:25:29 13° NE 23:26:50 10° NE
PSLV R/B 4.4 23:21:05 10° NNE 23:24:51 37° E 23:28:36 10° SSE
SL-23 DEB 3.9 23:23:50 10° SSW 23:27:05 61° SE 23:30:30 17° NE
Helios 1A Rocket 4.4 23:24:45 10° ESE 23:28:32 17° NE 23:30:18 10° NNE
Cosmos 389 Rocket 2.8 23:27:40 10° SSW 23:31:05 65° W 23:34:29 10° N
Cosmos 1805 Rocket 3.5 23:26:54 10° N 23:31:21 88° ENE 23:35:46 10° S
USA 267 4.3 23:27:58 16° ENE 23:31:26 24° NNE 23:36:27 10° NNW
Cosmos 1151 Rocket 3.2 23:28:22 10° SSE 23:32:29 46° E 23:36:35 10° NNE
Cosmos 773 Rocket 4.4 23:28:10 10° S 23:33:01 40° E 23:37:15 13° NE
Cosmos 1782 3.8 23:31:08 10° SE 23:34:22 25° E 23:35:11 23° ENE
SKYMED 3 4.5 23:30:06 10° NNE 23:34:28 79° ESE 23:38:47 10° S
Cosmos 2218 Rocket 4.4 23:29:28 10° NNE 23:35:06 37° E 23:40:42 10° SE
SMAP 4.2 23:30:49 10° S 23:35:18 48° W 23:39:48 10° NNW
Cosmos 1606 3.4 23:31:48 10° SSW 23:35:37 58° W 23:39:28 10° N
Cosmos 1328 Rocket 3.8 23:32:00 10° SSE 23:36:04 43° E 23:40:10 10° NNE
Cosmos 1666 Rocket 3.9 23:33:15 10° N 23:37:27 43° E 23:41:40 10° SSE
Cosmos 783 Rocket 4.5 23:32:25 10° S 23:37:40 68° ESE 23:42:56 10° NNE
BREEZE-M DEB (TANK) 4.2 23:30:27 10° SW 23:45:37 87° SE 23:48:28 24° NE
Cosmos 2366 rocket 4.2 23:41:24 10° N 23:47:18 45° E 23:53:07 10° SSE
SL-24 DEB 4.4 23:43:41 10° NNE 23:48:17 49° E 23:52:49 10° SSE
Cosmos 2297 4.5 23:44:57 10° N 23:49:49 28° ENE 23:50:36 27° ENE
Meteor 1-26 Rocket 4.3 23:45:46 10° S 23:51:38 64° E 23:57:36 10° NNE
SL-16 R/B 2.2 23:46:14 10° SSW 23:51:54 85° WNW 23:57:35 10° NNE
Lacrosse 5 rocket 1.3 23:50:43 10° SW 23:54:23 63° NW 23:55:53 32° NNE
Abrixas rocket 4.0 23:54:59 10° NNW 23:55:50 16° NNW 23:55:50 16° NNW
